TimeCST,TemperatureF,Dew PointF,Humidity,Sea Level PressureIn,VisibilityMPH,Wind Direction,Wind SpeedMPH,Gust SpeedMPH,PrecipitationIn,Events,Conditions,WindDirDegrees,DateUTC
12:52 AM,46.0,44.1,93,30.04,7.0,NNW,9.2,-,N/A,,Overcast,340,2013-01-15 06:52:00
1:52 AM,46.0,44.1,93,30.04,5.0,NNW,12.7,-,N/A,,Overcast,330,2013-01-15 07:52:00
2:41 AM,46.4,44.6,93,30.02,2.5,NNW,11.5,-,N/A,,Overcast,330,2013-01-15 08:41:00
2:49 AM,46.4,44.6,93,30.02,2.5,NW,13.8,-,N/A,,Overcast,320,2013-01-15 08:49:00
2:52 AM,46.0,44.1,93,30.02,3.0,NNW,13.8,-,N/A,,Overcast,330,2013-01-15 08:52:00
3:52 AM,46.4,44.6,93,30.02,6.0,North,13.8,-,N/A,,Overcast,350,2013-01-15 09:52:00
4:03 AM,46.4,44.6,93,30.01,7.0,NNW,8.1,-,0.00,Rain,Light Rain,340,2013-01-15 10:03:00
4:52 AM,46.4,44.6,93,30.01,10.0,North,13.8,-,N/A,,Overcast,350,2013-01-15 10:52:00
5:52 AM,46.0,44.1,93,30.02,10.0,NNW,15.0,-,N/A,,Overcast,340,2013-01-15 11:52:00
6:32 AM,46.4,44.6,93,30.03,10.0,North,12.7,-,N/A,,Overcast,360,2013-01-15 12:32:00
6:39 AM,46.4,44.6,93,30.03,10.0,North,12.7,-,N/A,,Overcast,360,2013-01-15 12:39:00
6:52 AM,46.0,44.1,93,30.03,10.0,North,9.2,-,N/A,,Overcast,360,2013-01-15 12:52:00
7:52 AM,46.0,44.1,93,30.07,9.0,North,12.7,-,N/A,,Overcast,350,2013-01-15 13:52:00
8:52 AM,46.9,45.0,93,30.07,10.0,North,8.1,-,0.00,,Overcast,10,2013-01-15 14:52:00
9:52 AM,46.9,45.0,93,30.09,10.0,North,12.7,-,N/A,,Overcast,350,2013-01-15 15:52:00
10:52 AM,48.0,45.0,89,30.09,10.0,North,15.0,-,N/A,,Overcast,360,2013-01-15 16:52:00
11:52 AM,48.0,45.0,89,30.07,10.0,North,15.0,-,N/A,,Overcast,350,2013-01-15 17:52:00
12:52 PM,46.9,44.1,90,30.06,10.0,North,15.0,-,N/A,,Overcast,350,2013-01-15 18:52:00
1:52 PM,46.9,43.0,86,30.04,10.0,North,13.8,-,N/A,,Overcast,350,2013-01-15 19:52:00
2:50 PM,46.4,42.8,87,30.04,10.0,North,12.7,-,N/A,,Overcast,360,2013-01-15 20:50:00
2:52 PM,46.9,43.0,86,30.05,10.0,North,12.7,-,N/A,,Overcast,360,2013-01-15 20:52:00
3:52 PM,46.9,42.1,83,30.06,10.0,North,17.3,-,N/A,,Overcast,350,2013-01-15 21:52:00
4:52 PM,45.0,42.1,90,30.10,10.0,North,13.8,-,0.00,,Overcast,350,2013-01-15 22:52:00
5:20 PM,44.6,42.8,93,30.11,10.0,NNW,16.1,-,N/A,,Overcast,330,2013-01-15 23:20:00
5:40 PM,44.6,41.0,87,30.10,10.0,NNW,17.3,-,N/A,,Overcast,340,2013-01-15 23:40:00
5:52 PM,45.0,41.0,86,30.12,10.0,North,16.1,-,N/A,,Overcast,350,2013-01-15 23:52:00
6:52 PM,45.0,39.9,82,30.12,10.0,North,16.1,-,N/A,,Overcast,350,2013-01-16 00:52:00
7:52 PM,45.0,39.9,82,30.15,10.0,North,11.5,-,N/A,,Overcast,350,2013-01-16 01:52:00
8:52 PM,45.0,39.0,80,30.17,10.0,North,13.8,-,N/A,,Overcast,350,2013-01-16 02:52:00
9:52 PM,45.0,37.9,76,30.18,10.0,North,15.0,-,N/A,,Overcast,360,2013-01-16 03:52:00
10:52 PM,44.1,37.0,76,30.21,10.0,NNW,15.0,-,N/A,,Overcast,340,2013-01-16 04:52:00
11:52 PM,44.1,36.0,73,30.23,10.0,NNW,16.1,-,N/A,,Overcast,340,2013-01-16 05:52:00